Location: Piotrkow Trybunalski
(51.4000°N, 19.6830°E)
Time: 08:24:45
(UTC+01:00)

BlueWalker 3 - Pass Details

Date: 01 December 2022
Orbit: 499 x 517 km, 53.2° (Epoch: 29 January)

Event Time Altitude Azimuth Distance (km) Brightness Sun altitude
Rises 18:52:50 0° 284° (WNW) 2,628 6.7 -29.7°
Reaches altitude 10° 18:55:02 10° 286° (WNW) 1,736 5.5 -30.0°
Enters shadow 18:56:39 23° 289° (WNW) 1,113 4.3 -30.3°
